FREGAT R/B, 41551

Orbit data source: Space-Track

FREGAT R/B, 41551 is space debris originally from a launch on Tue, 24 May 2016 UTC launched from the French Guiana (FRGUI). Debris objects in space refer to the collection of defunct objects orbiting the Earth. Examples of debris include non-operational satellites, rocket bodies, and fragments generated from explosions, collisions, or faulty payload assembly.

Loading next visibility...
Identifier
41551, 2016-030C
Orbit
Active
Country
Flag of CISCIS
Related business
Manufacturer
Lavochkin
Mission
Spacecraft
Bus & Motor
FREGAT, Unknown motor
Mass
1,050 kg wet, 1,050 kg dry
Launch date (UTC)
2016-05-24 (10 years ago)
Launch vehicle
Unknown
Launch site
French Guiana (FRGUI)
Object type
Payload
Rocket body
Debris
Shape & HBR
Irr, 1.6 m
Radar Cross Section
11.055 m², Large (>1 m²)

Expand to show TLE details & history
Last TLE update: 5 days ago

TLE from 5 days ago
0 FREGAT R/B
1 41551U 16030C   26146.03331202 -.00000010  00000-0  00000-0 0  9991
2 41551  54.9808 225.6439 0022550 238.2305 121.6012  1.67596896 61254
Epoch: 2026-05-26T00:47Z
TLE epoch observation values (Epoch: 2026-05-26T00:47:58.158Z)
Latitude
0.00003°
Longitude
-29.96252°
Altitude
23,595.746 km
Speed
3.645 km/s
True Right ascension
15h 02m 34s
True Declination
0° 00' 00"
Sunlit
Object was in daylight at epoch
Visualization orbit readout
Latitude
Unknown
Longitude
Unknown
Altitude
Unknown
Speed
Unknown
Apparent Right ascension
Unknown
Apparent Declination
Unknown
Sunlit
N/A
Visualization observer readout
Local Sidereal Time
20:32:59
Azimuth
Unknown
Elevation
Unknown
Doppler factor
Unknown
Orbital elements
Apogee altitude
23,627.503 km
Perigee altitude
23,492.482 km
Semi-major axis
29,938.13 km
Eccentricity
0.00226
Inclination
54.9808°
RAAN
225.6439°
Arg. of periapsis
238.2305°
True anomaly
121.82096°
Mean anomaly
121.6012°
Eccentric anomaly
121.71111°
Mean motion
0.41899 °/min
Orbital period
859.2 mins
BSTAR
0
Loading maneuver chart data...
Computing Atmospheric mass density...
Loading historical data...
Loading historical data...
Loading historical data...
Loading historical data...
Loading historical data...
Loading historical data...
Loading historical data...
Other satellites on launch #30 in the year 2016 (2016-05-24 UTC)

Documentation

Showing up to 5 results
|